Showing default

OPS 7034 (TRANSIT 18), 3133

Orbit data source: Space-Track

OPS 7034 (TRANSIT 18), 3133 is a payload satellite owned by USN NAVAIR (US) in LEO that was launched on Sat, 02 Mar 1968 UTC via an SCOUT A launch vehicle from the Air Force Western Test Range (AFWTR). Payload-class satellites include a variety of spacecraft equipped with specific instruments for various scientific and technological missions. These include communications satellites like Starlink; space stations such as the ISS; scientific satellites like the Hubble; Earth observation satellites from companies like Planet Labs, Umbra, and HawkEye 360; GPS; miniature CubeSats for education and research; and military/defense satellites.

Loading next visibility...
Identifier
3133, 1968-012A
Orbit
LEO
Country
Flag of USUS
Related business
Manufacturer
RCA/East Windsor
Mission
Defense Navigation
Bus & Motor
TRANSIT 5, Unknown motor
Mass
60 kg wet, 60 kg dry
Launch date (UTC)
1968-03-02 (58 years ago)
Launch vehicle
SCOUT A
Launch site
Air Force Western Test Range (AFWTR)
Object type
Payload
Rocket body
Debris
Shape & HBR
Oct Cyl + 4 Pan + 1 Rod, Unknown HBR
Radar Cross Section
7.565 m², Large (>1 m²)

Expand to show TLE details & history
Last TLE update: 12 hours ago

TLE from 12 hours ago
0 OPS 7034 (TRANSIT 18)
1 03133U 68012A   25258.77861998  .00000115  00000-0  15828-3 0  9998
2 03133  90.0194 273.4391 0075836  66.1478 107.4636 13.51537042557303
Epoch: 2025-09-15T18:41Z
TLE epoch observation values (Epoch: 2025-09-15T18:41:12.766Z)
Latitude
5.47976°
Longitude
178.15937°
Altitude
1,086.356 km
Speed
7.301 km/s
True Right ascension
06h 13m 45s
True Declination
5° 26' 55"
Sunlit
Object was in daylight at epoch
Visualization orbit readout
Latitude
Unknown
Longitude
Unknown
Altitude
Unknown
Speed
Unknown
Apparent Right ascension
Unknown
Apparent Declination
Unknown
Sunlit
N/A
Visualization observer readout
Local Sidereal Time
23:23:35
Azimuth
Unknown
Elevation
Unknown
Doppler factor
Unknown
Orbital elements
Apogee altitude
1,120.092 km
Perigee altitude
1,007.221 km
Semi-major axis
7,441.793 km
Eccentricity
0.00758
Inclination
90.0194°
RAAN
273.4391°
Arg. of periapsis
66.1478°
True anomaly
108.29018°
Mean anomaly
107.4636°
Eccentric anomaly
107.87713°
Mean motion
3.38086 °/min
Orbital period
106.48 mins
BSTAR
0.00015828
Loading maneuver chart data...
Computing Atmospheric mass density...
Loading historical data...
Loading historical data...
Loading historical data...
Loading historical data...
Loading historical data...
Loading historical data...
Loading historical data...

Documentation

Showing up to 5 results
|